Time,TemperatureF,DewpointF,PressureIn,WindDirection,WindDirectionDegrees,WindSpeedMPH,WindSpeedGustMPH,Humidity,HourlyPrecipIn,Conditions,Clouds,dailyrainin,SoftwareType,DateUTC
2013-08-09 00:02:00,70.0,67.0,-100.00,SSW,203,2.0,-999.0,90,-99.99,,,-99.99,,2013-08-09 05:02:00,
2013-08-09 00:11:00,70.0,67.0,-100.00,SSW,203,2.0,-999.0,90,-99.99,,,-99.99,,2013-08-09 05:11:00,
2013-08-09 00:21:00,69.0,67.0,-100.00,NW,315,5.0,-999.0,92,-99.99,,,-99.99,,2013-08-09 05:21:00,
2013-08-09 00:32:00,69.0,67.0,-100.00,West,270,3.0,-999.0,92,-99.99,,,-99.99,,2013-08-09 05:32:00,
2013-08-09 00:43:00,69.0,67.0,-100.00,West,270,3.0,-999.0,92,-99.99,,,-99.99,,2013-08-09 05:43:00,
2013-08-09 00:52:00,69.0,67.0,-100.00,West,270,3.0,-999.0,92,-99.99,,,-99.99,,2013-08-09 05:52:00,
2013-08-09 01:01:00,69.0,67.0,-100.00,West,270,3.0,-999.0,93,-99.99,,,-99.99,,2013-08-09 06:01:00,
2013-08-09 01:11:00,69.0,67.0,-100.00,West,270,3.0,-999.0,93,-99.99,,,-99.99,,2013-08-09 06:11:00,
2013-08-09 01:21:00,69.0,66.0,-100.00,West,270,3.0,-999.0,93,-99.99,,,-99.99,,2013-08-09 06:21:00,
2013-08-09 01:32:00,69.0,67.0,-100.00,SW,225,2.0,-999.0,91,-99.99,,,-99.99,,2013-08-09 06:32:00,
2013-08-09 01:43:00,69.0,67.0,-100.00,SW,225,2.0,-999.0,91,-99.99,,,-99.99,,2013-08-09 06:43:00,
2013-08-09 01:52:00,69.0,66.0,-100.00,West,270,3.0,-999.0,91,-99.99,,,-99.99,,2013-08-09 06:52:00,
2013-08-09 02:01:00,69.0,67.0,-100.00,WSW,248,4.0,-999.0,92,-99.99,,,-99.99,,2013-08-09 07:01:00,
2013-08-09 02:12:00,69.0,67.0,-100.00,WSW,248,4.0,-999.0,92,-99.99,,,-99.99,,2013-08-09 07:12:00,
2013-08-09 02:22:00,69.0,67.0,-100.00,WSW,248,4.0,-999.0,92,-99.99,,,-99.99,,2013-08-09 07:22:00,
2013-08-09 02:33:00,68.0,66.0,-100.00,WSW,248,3.0,-999.0,94,-99.99,,,-99.99,,2013-08-09 07:33:00,
2013-08-09 02:43:00,68.0,66.0,-100.00,WSW,248,3.0,-999.0,94,-99.99,,,-99.99,,2013-08-09 07:43:00,
2013-08-09 02:53:00,67.0,66.0,-100.00,WSW,248,2.0,-999.0,94,-99.99,,,-99.99,,2013-08-09 07:53:00,
2013-08-09 03:02:00,66.0,65.0,-100.00,West,270,4.0,-999.0,95,-99.99,,,-99.99,,2013-08-09 08:02:00,
2013-08-09 03:12:00,66.0,65.0,-100.00,West,270,4.0,-999.0,95,-99.99,,,-99.99,,2013-08-09 08:12:00,
2013-08-09 03:22:00,65.0,64.0,-100.00,West,270,4.0,-999.0,96,-99.99,,,-99.99,,2013-08-09 08:22:00,
2013-08-09 03:32:00,65.0,64.0,-100.00,West,270,4.0,-999.0,96,-99.99,,,-99.99,,2013-08-09 08:32:00,
2013-08-09 03:43:00,65.0,64.0,-100.00,West,270,4.0,-999.0,96,-99.99,,,-99.99,,2013-08-09 08:43:00,
2013-08-09 03:53:00,65.0,64.0,-100.00,West,270,4.0,-999.0,97,-99.99,,,-99.99,,2013-08-09 08:53:00,
2013-08-09 04:02:00,65.0,64.0,-100.00,WNW,293,4.0,-999.0,97,-99.99,,,-99.99,,2013-08-09 09:02:00,
2013-08-09 04:12:00,65.0,64.0,-100.00,WNW,293,4.0,-999.0,97,-99.99,,,-99.99,,2013-08-09 09:12:00,
2013-08-09 04:22:00,65.0,64.0,-100.00,WNW,293,5.0,-999.0,97,-99.99,,,-99.99,,2013-08-09 09:22:00,
2013-08-09 04:32:00,66.0,65.0,-100.00,West,270,3.0,-999.0,97,-99.99,,,-99.99,,2013-08-09 09:32:00,
2013-08-09 04:43:00,66.0,65.0,-100.00,West,270,3.0,-999.0,97,-99.99,,,-99.99,,2013-08-09 09:43:00,
2013-08-09 04:52:00,65.0,64.0,-100.00,NW,315,4.0,-999.0,97,-99.99,,,-99.99,,2013-08-09 09:52:00,
2013-08-09 05:01:00,65.0,64.0,-100.00,NW,315,2.0,-999.0,97,-99.99,,,-99.99,,2013-08-09 10:01:00,
2013-08-09 05:12:00,65.0,64.0,-100.00,NW,315,2.0,-999.0,97,-99.99,,,-99.99,,2013-08-09 10:12:00,
2013-08-09 05:22:00,65.0,64.0,-100.00,NW,315,2.0,-999.0,96,-99.99,,,-99.99,,2013-08-09 10:22:00,
2013-08-09 05:32:00,65.0,64.0,-100.00,NW,315,3.0,-999.0,96,-99.99,,,-99.99,,2013-08-09 10:32:00,
2013-08-09 05:43:00,65.0,64.0,-100.00,NW,315,3.0,-999.0,96,-99.99,,,-99.99,,2013-08-09 10:43:00,
2013-08-09 05:53:00,65.0,64.0,-100.00,NNE,23,4.0,-999.0,96,-99.99,,,-99.99,,2013-08-09 10:53:00,
2013-08-09 06:01:00,65.0,64.0,-100.00,NNE,23,2.0,-999.0,96,-99.99,,,-99.99,,2013-08-09 11:01:00,
2013-08-09 06:11:00,65.0,64.0,-100.00,NNE,23,2.0,-999.0,96,-99.99,,,-99.99,,2013-08-09 11:11:00,
2013-08-09 06:22:00,66.0,64.0,-100.00,NNE,23,2.0,-999.0,95,-99.99,,,-99.99,,2013-08-09 11:22:00,
2013-08-09 06:33:00,66.0,64.0,-100.00,NE,45,2.0,-999.0,94,-99.99,,,-99.99,,2013-08-09 11:33:00,
2013-08-09 06:42:00,66.0,64.0,-100.00,NE,45,2.0,-999.0,94,-99.99,,,-99.99,,2013-08-09 11:42:00,
2013-08-09 06:53:00,66.0,64.0,-100.00,NNE,23,3.0,-999.0,94,-99.99,,,-99.99,,2013-08-09 11:53:00,
2013-08-09 07:02:00,66.0,64.0,-100.00,NNE,23,4.0,-999.0,94,-99.99,,,-99.99,,2013-08-09 12:02:00,
2013-08-09 07:12:00,66.0,64.0,-100.00,NNE,23,4.0,-999.0,94,-99.99,,,-99.99,,2013-08-09 12:12:00,
2013-08-09 07:22:00,66.0,64.0,-100.00,NNE,23,4.0,-999.0,94,-99.99,,,-99.99,,2013-08-09 12:22:00,
2013-08-09 07:32:00,65.0,64.0,-100.00,NE,45,3.0,-999.0,95,-99.99,,,-99.99,,2013-08-09 12:32:00,
2013-08-09 07:43:00,65.0,64.0,-100.00,NE,45,3.0,-999.0,95,-99.99,,,-99.99,,2013-08-09 12:43:00,
2013-08-09 07:52:00,65.0,64.0,-100.00,NNE,23,4.0,-999.0,95,-99.99,,,-99.99,,2013-08-09 12:52:00,
2013-08-09 08:01:00,67.0,65.0,-100.00,NE,45,5.0,-999.0,95,-99.99,,,-99.99,,2013-08-09 13:01:00,
2013-08-09 08:12:00,67.0,65.0,-100.00,NE,45,5.0,-999.0,95,-99.99,,,-99.99,,2013-08-09 13:12:00,
2013-08-09 08:23:00,67.0,65.0,-100.00,SW,225,3.0,-999.0,94,-99.99,,,-99.99,,2013-08-09 13:23:00,
2013-08-09 08:32:00,68.0,66.0,-100.00,South,180,6.0,-999.0,94,-99.99,,,-99.99,,2013-08-09 13:32:00,
2013-08-09 08:43:00,68.0,66.0,-100.00,South,180,6.0,-999.0,94,-99.99,,,-99.99,,2013-08-09 13:43:00,
2013-08-09 08:52:00,69.0,67.0,-100.00,ESE,113,3.0,-999.0,93,-99.99,,,-99.99,,2013-08-09 13:52:00,
2013-08-09 09:02:00,70.0,67.0,-100.00,WSW,248,3.0,-999.0,93,-99.99,,,-99.99,,2013-08-09 14:02:00,
2013-08-09 09:11:00,70.0,67.0,-100.00,WSW,248,3.0,-999.0,93,-99.99,,,-99.99,,2013-08-09 14:11:00,
2013-08-09 09:22:00,71.0,67.0,-100.00,SSW,203,5.0,-999.0,90,-99.99,,,-99.99,,2013-08-09 14:22:00,
2013-08-09 09:33:00,71.0,68.0,-100.00,ESE,113,5.0,-999.0,88,-99.99,,,-99.99,,2013-08-09 14:33:00,
2013-08-09 09:43:00,71.0,68.0,-100.00,ESE,113,5.0,-999.0,88,-99.99,,,-99.99,,2013-08-09 14:43:00,
2013-08-09 09:53:00,72.0,67.0,-100.00,ESE,113,6.0,-999.0,85,-99.99,,,-99.99,,2013-08-09 14:53:00,
2013-08-09 10:01:00,73.0,68.0,-100.00,SW,225,5.0,-999.0,84,-99.99,,,-99.99,,2013-08-09 15:01:00,
2013-08-09 10:11:00,73.0,68.0,-100.00,SW,225,5.0,-999.0,84,-99.99,,,-99.99,,2013-08-09 15:11:00,
2013-08-09 10:22:00,74.0,68.0,-100.00,West,270,4.0,-999.0,81,-99.99,,,-99.99,,2013-08-09 15:22:00,
2013-08-09 10:32:00,76.0,68.0,-100.00,East,90,4.0,-999.0,78,-99.99,,,-99.99,,2013-08-09 15:32:00,
2013-08-09 10:44:00,76.0,68.0,-100.00,East,90,4.0,-999.0,78,-99.99,,,-99.99,,2013-08-09 15:44:00,
2013-08-09 10:53:00,76.0,68.0,-100.00,SW,225,4.0,-999.0,77,-99.99,,,-99.99,,2013-08-09 15:53:00,
2013-08-09 11:01:00,76.0,66.0,-100.00,WSW,248,8.0,-999.0,71,-99.99,,,-99.99,,2013-08-09 16:01:00,
2013-08-09 11:11:00,76.0,66.0,-100.00,WSW,248,8.0,-999.0,71,-99.99,,,-99.99,,2013-08-09 16:11:00,
2013-08-09 11:22:00,77.0,66.0,-100.00,NE,45,8.0,-999.0,68,-99.99,,,-99.99,,2013-08-09 16:22:00,
2013-08-09 11:32:00,77.0,66.0,-100.00,West,270,7.0,-999.0,68,-99.99,,,-99.99,,2013-08-09 16:32:00,
2013-08-09 11:43:00,77.0,66.0,-100.00,West,270,7.0,-999.0,68,-99.99,,,-99.99,,2013-08-09 16:43:00,
2013-08-09 11:53:00,78.0,66.0,-100.00,SW,225,6.0,-999.0,67,-99.99,,,-99.99,,2013-08-09 16:53:00,
2013-08-09 12:02:00,78.0,66.0,-100.00,South,180,5.0,-999.0,67,-99.99,,,-99.99,,2013-08-09 17:02:00,
2013-08-09 12:11:00,78.0,66.0,-100.00,South,180,5.0,-999.0,67,-99.99,,,-99.99,,2013-08-09 17:11:00,
2013-08-09 12:22:00,79.0,66.0,-100.00,ESE,113,6.0,-999.0,64,-99.99,,,-99.99,,2013-08-09 17:22:00,
2013-08-09 12:33:00,80.0,65.0,-100.00,NNE,23,5.0,-999.0,60,-99.99,,,-99.99,,2013-08-09 17:33:00,
2013-08-09 12:43:00,80.0,65.0,-100.00,NNE,23,5.0,-999.0,60,-99.99,,,-99.99,,2013-08-09 17:43:00,
2013-08-09 12:52:00,80.0,66.0,-100.00,SW,225,5.0,-999.0,63,-99.99,,,-99.99,,2013-08-09 17:52:00,
2013-08-09 13:01:00,80.0,66.0,-100.00,NE,45,7.0,-999.0,62,-99.99,,,-99.99,,2013-08-09 18:01:00,
2013-08-09 13:11:00,80.0,66.0,-100.00,NE,45,7.0,-999.0,62,-99.99,,,-99.99,,2013-08-09 18:11:00,
2013-08-09 13:22:00,80.0,65.0,-100.00,NNE,23,9.0,-999.0,60,-99.99,,,-99.99,,2013-08-09 18:22:00,
2013-08-09 13:32:00,80.0,65.0,-100.00,NE,45,9.0,-999.0,60,-99.99,,,-99.99,,2013-08-09 18:32:00,
2013-08-09 13:43:00,80.0,65.0,-100.00,NE,45,9.0,-999.0,60,-99.99,,,-99.99,,2013-08-09 18:43:00,
2013-08-09 13:53:00,80.0,65.0,-100.00,NNE,23,9.0,-999.0,60,-99.99,,,-99.99,,2013-08-09 18:53:00,
2013-08-09 14:02:00,81.0,66.0,-100.00,ENE,68,7.0,-999.0,60,-99.99,,,-99.99,,2013-08-09 19:02:00,
2013-08-09 14:11:00,81.0,66.0,-100.00,ENE,68,7.0,-999.0,60,-99.99,,,-99.99,,2013-08-09 19:11:00,
2013-08-09 14:22:00,81.0,66.0,-100.00,NE,45,6.0,-999.0,59,-99.99,,,-99.99,,2013-08-09 19:22:00,
2013-08-09 14:32:00,80.0,67.0,-100.00,ENE,68,7.0,-999.0,64,-99.99,,,-99.99,,2013-08-09 19:32:00,
2013-08-09 14:43:00,80.0,67.0,-100.00,ENE,68,7.0,-999.0,64,-99.99,,,-99.99,,2013-08-09 19:43:00,
2013-08-09 14:52:00,82.0,67.0,-100.00,NE,45,7.0,-999.0,60,-99.99,,,-99.99,,2013-08-09 19:52:00,
2013-08-09 15:02:00,80.0,66.0,-100.00,ENE,68,6.0,-999.0,62,-99.99,,,-99.99,,2013-08-09 20:02:00,
2013-08-09 15:11:00,80.0,66.0,-100.00,ENE,68,6.0,-999.0,62,-99.99,,,-99.99,,2013-08-09 20:11:00,
2013-08-09 15:22:00,80.0,65.0,-100.00,ENE,68,9.0,-999.0,59,-99.99,,,-99.99,,2013-08-09 20:22:00,
2013-08-09 15:32:00,82.0,65.0,-100.00,ENE,68,8.0,-999.0,56,-99.99,,,-99.99,,2013-08-09 20:32:00,
2013-08-09 15:43:00,82.0,65.0,-100.00,ENE,68,8.0,-999.0,56,-99.99,,,-99.99,,2013-08-09 20:43:00,
2013-08-09 15:52:00,81.0,65.0,-100.00,ENE,68,9.0,-999.0,58,-99.99,,,-99.99,,2013-08-09 20:52:00,
2013-08-09 16:01:00,82.0,61.0,-100.00,East,90,9.0,-999.0,50,-99.99,,,-99.99,,2013-08-09 21:01:00,
2013-08-09 16:12:00,82.0,61.0,-100.00,East,90,9.0,-999.0,50,-99.99,,,-99.99,,2013-08-09 21:12:00,
2013-08-09 16:22:00,83.0,62.0,-100.00,NE,45,9.0,-999.0,49,-99.99,,,-99.99,,2013-08-09 21:22:00,
2013-08-09 16:33:00,83.0,62.0,-100.00,East,90,6.0,-999.0,49,-99.99,,,-99.99,,2013-08-09 21:33:00,
2013-08-09 16:43:00,83.0,62.0,-100.00,East,90,6.0,-999.0,49,-99.99,,,-99.99,,2013-08-09 21:43:00,
2013-08-09 16:52:00,83.0,60.0,-100.00,East,90,10.0,-999.0,46,-99.99,,,-99.99,,2013-08-09 21:52:00,
2013-08-09 17:01:00,83.0,61.0,-100.00,ENE,68,8.0,-999.0,46,-99.99,,,-99.99,,2013-08-09 22:01:00,
2013-08-09 17:11:00,83.0,61.0,-100.00,ENE,68,8.0,-999.0,46,-99.99,,,-99.99,,2013-08-09 22:11:00,
2013-08-09 17:22:00,83.0,60.0,-100.00,ENE,68,7.0,-999.0,46,-99.99,,,-99.99,,2013-08-09 22:22:00,
2013-08-09 17:32:00,83.0,58.0,-100.00,ENE,68,7.0,-999.0,43,-99.99,,,-99.99,,2013-08-09 22:32:00,
2013-08-09 17:42:00,83.0,58.0,-100.00,ENE,68,7.0,-999.0,43,-99.99,,,-99.99,,2013-08-09 22:42:00,
2013-08-09 17:52:00,82.0,57.0,-100.00,ENE,68,10.0,-999.0,43,-99.99,,,-99.99,,2013-08-09 22:52:00,
2013-08-09 18:01:00,82.0,58.0,-100.00,ENE,68,9.0,-999.0,44,-99.99,,,-99.99,,2013-08-09 23:01:00,
2013-08-09 18:11:00,82.0,58.0,-100.00,ENE,68,9.0,-999.0,44,-99.99,,,-99.99,,2013-08-09 23:11:00,
2013-08-09 18:21:00,82.0,60.0,-100.00,NE,45,10.0,-999.0,47,-99.99,,,-99.99,,2013-08-09 23:21:00,
2013-08-09 18:32:00,83.0,60.0,-100.00,ENE,68,5.0,-999.0,46,-99.99,,,-99.99,,2013-08-09 23:32:00,
2013-08-09 18:43:00,83.0,60.0,-100.00,ENE,68,5.0,-999.0,46,-99.99,,,-99.99,,2013-08-09 23:43:00,
2013-08-09 18:52:00,81.0,60.0,-100.00,ENE,68,7.0,-999.0,49,-99.99,,,-99.99,,2013-08-09 23:52:00,
2013-08-09 19:01:00,81.0,62.0,-100.00,ENE,68,5.0,-999.0,52,-99.99,,,-99.99,,2013-08-10 00:01:00,
2013-08-09 19:11:00,81.0,62.0,-100.00,ENE,68,5.0,-999.0,52,-99.99,,,-99.99,,2013-08-10 00:11:00,
2013-08-09 19:22:00,81.0,63.0,-100.00,ENE,68,8.0,-999.0,53,-99.99,,,-99.99,,2013-08-10 00:22:00,
2013-08-09 19:33:00,81.0,61.0,-100.00,East,90,7.0,-999.0,51,-99.99,,,-99.99,,2013-08-10 00:33:00,
2013-08-09 19:43:00,81.0,61.0,-100.00,East,90,7.0,-999.0,51,-99.99,,,-99.99,,2013-08-10 00:43:00,
2013-08-09 19:52:00,80.0,62.0,-100.00,ENE,68,8.0,-999.0,55,-99.99,,,-99.99,,2013-08-10 00:52:00,
2013-08-09 20:01:00,78.0,63.0,-100.00,ENE,68,6.0,-999.0,59,-99.99,,,-99.99,,2013-08-10 01:01:00,
2013-08-09 20:11:00,78.0,63.0,-100.00,ENE,68,6.0,-999.0,59,-99.99,,,-99.99,,2013-08-10 01:11:00,
2013-08-09 20:22:00,77.0,62.0,-100.00,ENE,68,6.0,-999.0,61,-99.99,,,-99.99,,2013-08-10 01:22:00,
2013-08-09 20:32:00,75.0,63.0,-100.00,ENE,68,5.0,-999.0,66,-99.99,,,-99.99,,2013-08-10 01:32:00,
2013-08-09 20:42:00,75.0,63.0,-100.00,ENE,68,5.0,-999.0,66,-99.99,,,-99.99,,2013-08-10 01:42:00,
2013-08-09 20:52:00,74.0,64.0,-100.00,ENE,68,4.0,-999.0,69,-99.99,,,-99.99,,2013-08-10 01:52:00,
2013-08-09 21:03:00,74.0,63.0,-100.00,ENE,68,5.0,-999.0,70,-99.99,,,-99.99,,2013-08-10 02:03:00,
2013-08-09 21:11:00,74.0,63.0,-100.00,ENE,68,5.0,-999.0,70,-99.99,,,-99.99,,2013-08-10 02:11:00,
2013-08-09 21:21:00,73.0,64.0,-100.00,ENE,68,5.0,-999.0,73,-99.99,,,-99.99,,2013-08-10 02:21:00,
2013-08-09 21:32:00,72.0,64.0,-100.00,ENE,68,5.0,-999.0,75,-99.99,,,-99.99,,2013-08-10 02:32:00,
2013-08-09 21:42:00,72.0,64.0,-100.00,ENE,68,5.0,-999.0,75,-99.99,,,-99.99,,2013-08-10 02:42:00,
2013-08-09 21:52:00,72.0,64.0,-100.00,ESE,113,4.0,-999.0,75,-99.99,,,-99.99,,2013-08-10 02:52:00,
2013-08-09 22:01:00,71.0,64.0,-100.00,ENE,68,4.0,-999.0,78,-99.99,,,-99.99,,2013-08-10 03:01:00,
2013-08-09 22:11:00,71.0,64.0,-100.00,ENE,68,4.0,-999.0,78,-99.99,,,-99.99,,2013-08-10 03:11:00,
2013-08-09 22:21:00,71.0,64.0,-100.00,East,90,4.0,-999.0,78,-99.99,,,-99.99,,2013-08-10 03:21:00,
2013-08-09 22:32:00,71.0,63.0,-100.00,East,90,4.0,-999.0,78,-99.99,,,-99.99,,2013-08-10 03:32:00,
2013-08-09 22:42:00,71.0,63.0,-100.00,East,90,4.0,-999.0,78,-99.99,,,-99.99,,2013-08-10 03:42:00,
2013-08-09 22:52:00,70.0,63.0,-100.00,East,90,4.0,-999.0,79,-99.99,,,-99.99,,2013-08-10 03:52:00,
2013-08-09 23:01:00,70.0,63.0,-100.00,East,90,3.0,-999.0,78,-99.99,,,-99.99,,2013-08-10 04:01:00,
2013-08-09 23:12:00,70.0,63.0,-100.00,East,90,3.0,-999.0,78,-99.99,,,-99.99,,2013-08-10 04:12:00,
2013-08-09 23:22:00,69.0,62.0,-100.00,East,90,5.0,-999.0,78,-99.99,,,-99.99,,2013-08-10 04:22:00,
2013-08-09 23:32:00,69.0,62.0,-100.00,East,90,3.0,-999.0,79,-99.99,,,-99.99,,2013-08-10 04:32:00,
2013-08-09 23:43:00,69.0,62.0,-100.00,East,90,3.0,-999.0,79,-99.99,,,-99.99,,2013-08-10 04:43:00,
2013-08-09 23:53:00,69.0,62.0,-100.00,East,90,2.0,-999.0,79,-99.99,,,-99.99,,2013-08-10 04:53:00,